Flag for U.S.A. Weather past 2 weeks in Cupertino, California, U.S.A.

Now
46 °F

Clear.


Feels Like: 46 °F
Forecast: 44 / 71 °F
Wind: No wind

Location: Moffett Field

Current Time: Mar 5, 2015 at 3:20:36 AM

Latest Report: Mar 5, 2015 at 2:56 AM


Visibility: 10 mi

Pressure: 30.25 "Hg

Humidity: 71%

Dew point: 37 °F

Location of CupertinoLocation

Historic Weather in Cupertino — Graph

°F

Cupertino temperature yesterday

Maximum temperature yesterday: 66 °F (at 2:56 PM)
Minimum temperature yesterday: 43 °F (at 6:56 AM)
Average temperature yesterday: 55 °F

Past Weeks' High & Low Weather Summary

 TemperatureHumidityPressure
High71 °F (Feb 21, 2:56 PM)97% (Mar 1, 3:56 AM)30.38 "Hg (Mar 1, 3:56 AM)
Low38 °F (Feb 24, 6:56 AM)17% (Feb 24, 11:56 AM)29.75 "Hg (Feb 28, 3:56 AM)
Average55 °F65%30.03 "Hg
* Reported Feb 18 1:56 AM — Mar 5 1:56 AM, Cupertino, Weather by CustomWeather, © 2015

Note: Actual official high and low records may vary slightly from our data, if they occured in-between our weather recording intervals... More about our weather records

Advertising

Cupertino weather history for previous 24 hours

 ConditionsComfort  
Time TempWeatherWind HumidityBarometerVisibility
1:56 AM
Thu, Mar 5
47 °FClear.No wind69%30.26 "Hg10 mi
12:56 AM48 °FClear.No wind66%30.25 "Hg10 mi
11:56 PM
Wed, Mar 4
50 °FClear.No wind61%30.24 "Hg10 mi
10:56 PM53 °FClear.No wind55%30.24 "Hg10 mi
9:56 PM54 °FClear.No wind51%30.23 "Hg10 mi
8:56 PM53 °FClear.3 mph55%30.21 "Hg10 mi
7:56 PM59 °FClear.No wind60%30.19 "Hg10 mi
6:56 PM59 °FClear.No wind60%30.17 "Hg10 mi
5:56 PM63 °FSunny.5 mph34%30.16 "Hg10 mi
4:56 PM65 °FSunny.5 mph33%30.15 "Hg10 mi
3:56 PM66 °FSunny.6 mph28%30.14 "Hg10 mi
2:56 PM66 °FSunny.7 mph29%30.14 "Hg10 mi
1:56 PM65 °FSunny.8 mph32%30.14 "Hg10 mi
12:56 PM65 °FSunny.7 mph36%30.15 "Hg10 mi
11:56 AM64 °FSunny.6 mph41%30.16 "Hg10 mi
10:56 AM61 °FSunny.3 mph58%30.16 "Hg10 mi
9:56 AM59 °FSunny.No wind54%30.16 "Hg10 mi
8:56 AM53 °FSunny.No wind59%30.15 "Hg10 mi
7:56 AM48 °FSunny.3 mph80%30.13 "Hg10 mi
6:56 AM43 °FSunny.No wind76%30.10 "Hg10 mi
5:56 AM44 °FClear.No wind79%30.09 "Hg10 mi
4:56 AM45 °FClear.No wind80%30.07 "Hg10 mi
3:56 AM44 °FClear.No wind82%30.06 "Hg10 mi
Weather by CustomWeather, © 2015

See weather overviewHow to use our weather pages